Location: Gebenbach
(49.5378°N, 11.8735°E)
Time: 01:47:33
(UTC+00:00)

CZ-4C R/B - Pass Details

Date: 29 October 2020
Orbit: 624 x 1378 km, 63.4° (Epoch: 27 November)

Event Time Altitude Azimuth Distance (km) Brightness Sun altitude
Rises 16:50:57 0° 307° (NW) 3,526 6.1 -9.6°
Reaches altitude 10° 16:53:42 10° 319° (NW) 2,703 5.3 -10.0°
Maximum altitude 16:59:13 29° 18° (NNE) 1,892 3.8 -10.9°
Enters shadow 17:04:27 14° 70° (ENE) 2,835 4.3 -11.8°
